DateTimeUTC,F1_A11,F1_S11,BsB_S11,BsG_S11,BsR_S11,BbsB_S11,BbsG_S11,BbsR_S11,BaB_A11,BaG_A11,BaR_A11,Tu_S11,T_S11,Uu_S11,U_S11,P_S11,T1_A11
2021-05-29T10:00:00Z,00000200,20000000,,,,,,,-000.28,-000.05,-000.07,17.4,24.3,02.9,01.9,0671.1,30.8
2021-05-29T10:01:00Z,00000200,20000000,,,,,,,0000.13,0000.33,0000.22,17.4,24.3,02.9,01.9,0671.1,30.8
2021-05-29T10:02:00Z,00000200,20000000,,,,,,,-000.02,-000.18,-000.16,17.4,24.3,02.9,01.9,0671.1,30.8
2021-05-29T10:03:00Z,00000200,60000000,,,,,,,0000.45,0000.49,0000.25,17.4,24.3,02.9,01.9,0671.1,30.8
2021-05-29T10:04:00Z,00000200,40000000,0000.87,0000.84,0000.16,0000.42,0000.25,0000.23,0000.43,0000.47,0000.30,17.6,24.1,02.9,01.9,0672.0,30.8
2021-05-29T10:05:00Z,00000200,00000000,0001.43,0000.82,0000.54,0000.28,0000.06,0000.10,0000.30,0000.12,0000.56,17.6,24.1,03.1,02.1,0672.0,30.8
2021-05-29T10:06:00Z,00000200,00000000,0000.93,0000.78,0000.62,0000.26,0000.22,0000.00,0000.68,0000.56,0000.43,17.6,24.1,03.1,02.1,0672.0,30.8
2021-05-29T10:07:00Z,00000200,00000000,0001.67,0000.91,0000.59,0000.43,0000.14,0000.20,0000.51,0000.74,0000.23,17.6,24.1,03.2,02.1,0672.0,30.8
2021-05-29T10:08:00Z,00000200,00000000,0001.32,0000.50,0000.41,-000.03,0000.10,0000.05,0000.50,0000.48,0000.41,17.6,24.0,03.1,02.1,0672.0,30.8
2021-05-29T10:09:00Z,00000200,00000000,0001.05,0000.60,0000.80,0000.61,-000.12,-000.03,0000.30,0000.18,0000.25,17.6,24.0,03.2,02.1,0672.0,30.8
2021-05-29T10:10:00Z,00000200,00000000,0001.08,0000.89,0000.56,-000.13,0000.41,-000.13,0000.83,0000.65,0000.43,17.7,24.1,03.2,02.2,0672.0,30.8
2021-05-29T10:11:00Z,00000200,00000000,0001.34,0000.57,0000.33,0000.22,0000.04,0000.10,0000.35,0000.21,0000.43,17.7,24.0,03.1,02.1,0672.0,30.8
2021-05-29T10:12:00Z,00000200,00000000,0000.52,0000.59,0000.61,0000.23,0000.28,-000.10,0000.30,0000.47,0000.16,17.7,24.1,03.2,02.2,0672.0,30.8
2021-05-29T10:13:00Z,00000200,00000000,0001.16,0000.47,0000.45,0000.02,0000.25,-000.10,0000.44,0000.58,0000.47,17.7,24.1,03.2,02.2,0672.0,30.8
2021-05-29T10:14:00Z,00000200,00000000,0001.39,0000.57,0000.79,0000.16,0000.24,-000.02,0000.46,0000.40,0000.40,17.7,24.1,03.3,02.2,0672.0,30.8
2021-05-29T10:15:00Z,00000200,00000000,0001.06,0000.57,0000.28,0000.07,0000.52,0000.04,0000.79,0000.68,0000.20,17.7,24.1,03.3,02.2,0672.0,30.8
2021-05-29T10:16:00Z,00000200,00000000,0001.66,0000.49,0000.44,0000.20,0000.28,-000.08,0000.36,0000.20,-000.05,17.7,24.1,03.3,02.2,0672.0,30.8
2021-05-29T10:17:00Z,00000200,00000000,0001.06,0000.71,0000.37,0000.66,0000.07,0000.05,0000.47,0000.29,0000.53,17.7,24.1,03.3,02.3,0672.0,30.8
2021-05-29T10:18:00Z,00000200,00000000,0001.75,0000.85,0000.49,0000.33,0000.20,0000.07,0000.63,0000.32,0000.33,17.7,24.1,03.3,02.2,0672.0,30.8
2021-05-29T10:19:00Z,00000200,00000000,0001.23,0000.54,0000.49,0000.53,-000.01,-000.08,0000.28,0000.76,0000.68,17.7,24.1,03.2,02.2,0672.0,30.8
2021-05-29T10:20:00Z,00000200,00000000,0001.63,0000.49,0000.62,-000.09,0000.07,-000.03,0000.41,0000.25,0000.08,17.8,24.1,03.2,02.2,0671.9,30.8
2021-05-29T10:21:00Z,00000200,00000000,0001.86,0000.48,0000.75,0000.51,0000.07,-000.08,0000.33,0000.29,0000.20,17.8,24.1,03.1,02.1,0671.9,30.8
2021-05-29T10:22:00Z,00000200,00000000,0001.37,0000.64,0000.64,0000.28,0000.20,-000.06,0000.75,0000.70,0000.45,17.8,24.1,03.1,02.1,0671.9,30.8
2021-05-29T10:23:00Z,00000200,00000000,0001.40,0001.13,0000.79,0000.42,0000.41,-000.07,0000.46,0000.50,0000.01,17.8,24.1,03.1,02.1,0671.9,30.9
2021-05-29T10:24:00Z,00000200,00000000,0001.53,0000.93,0000.38,0000.20,0000.15,-000.27,0000.49,0000.41,0000.50,17.8,24.1,03.0,02.0,0671.9,30.8
2021-05-29T10:25:00Z,00000200,00000000,0001.39,0000.64,0000.38,0000.06,-000.02,-000.08,0000.38,0000.40,0000.23,17.8,24.1,03.0,02.0,0671.9,30.8
2021-05-29T10:26:00Z,00000200,00000000,0001.67,0001.13,0000.25,0000.15,0000.20,0000.01,0000.30,0000.30,0000.20,17.8,24.1,03.0,02.1,0671.8,30.8
2021-05-29T10:27:00Z,00000200,00000000,0002.28,0001.00,0000.82,0000.03,0000.01,0000.02,0000.61,0000.42,0000.53,17.9,24.1,02.9,02.0,0671.9,30.8
2021-05-29T10:28:00Z,00000200,00000000,0001.86,0001.01,0000.83,-000.14,0000.14,0000.27,0000.46,0000.37,0000.28,17.9,24.1,02.9,02.0,0671.8,30.8
2021-05-29T10:29:00Z,00000200,00000000,0002.09,0001.03,0000.80,0000.28,-000.14,0000.30,0000.58,0001.16,0000.64,17.9,24.1,02.8,01.9,0671.8,30.9
2021-05-29T10:30:00Z,00000200,00000000,0002.16,0000.79,0000.51,-000.24,-000.00,0000.08,0001.02,0000.20,0000.47,17.9,24.1,03.0,02.0,0671.8,30.9
2021-05-29T10:31:00Z,00000200,00000000,0001.83,0000.43,0000.43,-000.08,0000.22,0000.29,0000.72,0000.42,0000.46,17.9,24.1,03.1,02.1,0671.8,30.8
2021-05-29T10:32:00Z,00000200,00000000,0001.22,0000.73,0000.33,-000.02,0000.23,-000.15,0000.60,0000.75,0000.50,17.9,24.1,03.1,02.1,0671.8,30.8
2021-05-29T10:33:00Z,00000200,00000000,0001.08,0000.68,0000.49,0000.40,0000.22,-000.13,0000.45,0000.63,0000.23,17.9,24.1,03.2,02.2,0671.8,30.9
2021-05-29T10:34:00Z,00000200,00000000,0001.93,0000.86,0000.49,0000.41,0000.09,0000.26,0000.97,0000.78,0000.90,17.9,24.1,03.3,02.2,0671.8,30.9
2021-05-29T10:35:00Z,00000200,00000000,0001.99,0000.86,0000.69,0000.14,0000.11,0000.09,0000.26,0000.37,0000.10,17.9,24.1,03.4,02.3,0671.8,30.9
2021-05-29T10:36:00Z,00000200,00000000,0002.10,0000.88,0000.43,0000.19,0000.08,0000.00,0000.64,0000.63,0000.36,17.9,24.1,03.4,02.3,0671.7,30.8
2021-05-29T10:37:00Z,00000200,00000000,0001.02,0001.10,0000.50,0000.37,0000.25,-000.13,0000.34,0000.35,0000.42,17.9,24.1,03.5,02.4,0671.7,30.9
2021-05-29T10:38:00Z,00000200,00000000,0001.23,0000.97,0000.60,0000.21,0000.05,-000.10,0001.08,0000.50,0000.59,17.9,24.1,03.4,02.4,0671.7,30.9
2021-05-29T10:39:00Z,00000200,00000000,0001.50,0000.93,0000.40,0000.01,0000.11,0000.20,0000.53,0000.69,0000.62,17.9,24.2,03.5,02.4,0671.7,30.8
2021-05-29T10:40:00Z,00000200,00000000,0001.99,0000.94,0000.57,0000.52,0000.35,0000.15,0000.20,0000.20,0000.05,17.9,24.2,03.5,02.4,0671.7,30.9
2021-05-29T10:41:00Z,00000200,00000000,0001.80,0000.40,0000.34,-000.26,0000.22,0000.09,0000.39,0000.39,0000.39,17.9,24.1,03.6,02.5,0671.6,30.9
2021-05-29T10:42:00Z,00000200,00000000,0001.80,0000.86,0000.73,0000.49,0000.05,-000.08,0001.01,0000.68,0000.48,17.9,24.1,03.5,02.4,0671.7,30.8
2021-05-29T10:43:00Z,00000200,00000000,0001.45,0001.01,0000.40,0000.37,0000.15,0000.10,0000.37,0000.73,0000.12,17.9,24.2,03.6,02.5,0671.6,30.9
2021-05-29T10:44:00Z,00000200,00000000,0002.08,0000.97,0000.71,0000.26,0000.31,0000.16,0000.75,0000.34,0000.61,18.0,24.2,03.6,02.5,0671.6,30.8
2021-05-29T10:45:00Z,00000200,00000000,0002.03,0001.19,0000.63,-000.61,0000.14,-000.01,0000.70,0000.60,0000.47,18.0,24.1,03.6,02.5,0671.6,30.8
2021-05-29T10:46:00Z,00000200,00000000,0001.40,0000.99,0000.67,0000.35,0000.20,-000.11,0000.67,0000.45,0000.39,18.0,24.2,03.5,02.4,0671.6,30.8
2021-05-29T10:47:00Z,00000200,00000000,0001.98,0000.95,0000.80,-000.12,0000.41,0000.10,0000.23,0000.79,0000.45,18.0,24.2,03.6,02.4,0671.6,30.8
2021-05-29T10:48:00Z,00000200,00000000,0002.39,0001.05,0000.63,0000.08,0000.36,-000.03,0001.05,0000.53,0000.36,18.0,24.2,03.5,02.4,0671.6,30.8
2021-05-29T10:49:00Z,00000200,00000000,0002.09,0001.14,0000.93,0000.12,0000.45,0000.21,0000.66,0000.53,0000.53,18.0,24.2,03.5,02.4,0671.6,30.9
2021-05-29T10:50:00Z,00000200,00000000,0001.74,0000.96,0000.72,0000.47,0000.30,0000.26,0000.21,0000.71,0000.22,18.0,24.2,03.4,02.3,0671.6,30.8
2021-05-29T10:51:00Z,00000200,00000000,0001.49,0001.02,0000.88,0000.54,-000.04,-000.02,0000.89,0000.45,0000.68,18.0,24.1,03.4,02.3,0671.6,30.8
2021-05-29T10:52:00Z,00000200,00000000,0001.84,0001.17,0000.94,0000.80,0000.29,-000.09,0000.52,0000.68,0000.39,18.0,24.2,03.5,02.4,0671.6,30.8
2021-05-29T10:53:00Z,00000200,00000000,0001.88,0000.98,0000.92,0000.03,0000.16,0000.21,0000.79,0000.57,0000.38,18.0,24.2,03.4,02.3,0671.6,30.8
2021-05-29T10:54:00Z,00000200,00000000,0002.14,0001.10,0000.97,0000.07,0000.31,0000.18,0000.89,0001.00,0000.86,18.0,24.2,03.5,02.4,0671.6,30.8
2021-05-29T10:55:00Z,00000200,00000000,0001.76,0000.88,0000.83,0000.07,0000.13,-000.09,0000.52,0000.45,-000.10,18.0,24.2,03.6,02.4,0671.6,30.8
2021-05-29T10:56:00Z,00000200,00000000,0002.14,0001.03,0000.87,0000.44,0000.18,0000.14,0000.99,0000.53,0000.93,18.0,24.2,03.5,02.4,0671.6,30.8
2021-05-29T10:57:00Z,00000200,40000000,,,,,,,-000.24,-000.05,-000.12,18.1,24.2,03.8,02.6,0671.8,30.9
2021-05-29T10:58:00Z,00000200,60000000,,,,,,,0000.01,-000.11,-000.02,17.8,24.3,03.3,02.2,0670.7,30.9
2021-05-29T10:59:00Z,00000200,20000000,,,,,,,0000.29,0000.50,0000.16,17.8,24.4,03.3,02.2,0670.7,30.9
